User: anonymous   Login
Location: Caltech
(34.1382°N, 118.1253°W)
Time: 12:55:23
(UTC-07:00)
Language:

Meteor 2-4 Rocket - Orbit

View from above orbital plane
View from above orbital plane
View from above satellite
View from above satellite

Ground track
Ground track

The orbit data is extracted from the following two-line orbital elements,

1 11289U 79021B   14294.89340821  .00000180  00000-0  89654-4 0  7493
2 11289 081.2498 029.7354 0076941 103.9637 032.6890 14.11452840834093
Epoch (UTC): 21 October 2014 21:26:30
Eccentricity: 0.0076941
inclination: 81.2498°
perigee height: 799 km
apogee height: 910 km
right ascension of ascending node: 29.7354°
argument of perigee: 103.9637°
revolutions per day: 14.11452840
mean anomaly at epoch: 32.6890°
orbit number at epoch: 83409

The dashed part of the orbit path shows where the satellite is in the earth's shadow,  

DLR